This demonstration page uses our WeatherBlox Daily Observations layout. Learn more.

Hourly Observations for September 23, 2015

Temp ( °F °C ) Dew Point ( °F °C ) Humidity (%) Winds ( mph kmh ) Pressure ( in mb ) Visibility ( mi km ) Precip ( " mm )
12:15 am 00:15 Clear 65 18.1 56 13.1 73 73 S 3 6 29.97 1015 10 16.0934 0 0
12:35 am 00:35 Clear 64 17.5 57 13.8 79 79 SSE 7 11 30 1016 10 16.0934 0 0
12:55 am 00:55 Clear 64 17.9 57 14.1 79 79 SSE 8 13 30 1016 10 16.0934 0 0
1:15 am 01:15 Clear 65 18.1 57 14.1 78 78 SSW 5 7 30 1016 10 16.0934 0 0
1:35 am 01:35 Clear 65 18.4 57 13.7 74 74 Calm 30 1016 10 16.0934 0 0
1:55 am 01:55 Partly Cloudy 66 18.9 56 13.4 71 71 W 3 6 30 1016 10 16.0934 0 0
2:15 am 02:15 Mostly Cloudy with Light Rain 65 18.6 56 13.5 72 72 W 12 19 30.03 1017 10 16.0934 0.02 0.508
2:35 am 02:35 Cloudy 63 17 59 15 88 88 Calm 30.03 1017 7 11.26538 0.11 2.794
2:55 am 02:55 Cloudy with Nearby Thunderstorms 62 16.9 60 15.4 91 91 N 3 6 30.03 1017 10 16.0934 0.11 2.794
3:15 am 03:15 Mostly Cloudy 63 17 60 15.6 92 92 Calm 30.03 1017 10 16.0934 0 0
3:35 am 03:35 Partly Cloudy 63 17 60 15.7 92 92 NE 5 7 30.03 1017 10 16.0934 0 0
3:55 am 03:55 Clear 63 17 61 16 94 94 NE 9 15 30.03 1017 10 16.0934 0 0
4:15 am 04:15 Partly Cloudy 63 17.1 61 16 93 93 ENE 13 20 30.03 1017 10 16.0934 0 0
4:35 am 04:35 Partly Cloudy 63 17 61 16 94 94 ENE 10 17 30 1016 10 16.0934 0 0
4:55 am 04:55 Mostly Cloudy 63 17.1 61 16 93 93 ENE 8 13 30 1016 10 16.0934 0 0
5:15 am 05:15 Partly Cloudy 63 17.2 61 15.9 92 92 NE 6 9 30 1016 10 16.0934 0 0
5:35 am 05:35 Partly Cloudy 63 17.2 60 15.7 91 91 ENE 5 7 30.03 1017 10 16.0934 0 0
5:55 am 05:55 Partly Cloudy 63 17 60 15.6 92 92 Calm 30.03 1017 10 16.0934 0 0
6:15 am 06:15 Partly Cloudy 63 17 60 15.6 92 92 Calm 30.03 1017 10 16.0934 0 0
6:35 am 06:35 Mostly Cloudy 63 17 60 15.5 91 91 Calm 30.03 1017 10 16.0934 0 0
6:55 am 06:55 Cloudy with Light Rain 63 17 60 15.7 92 92 Calm 30.03 1017 10 16.0934 0 0
7:15 am 07:15 Cloudy with Light Rain 62 16.9 60 15.8 93 93 Calm 30.03 1017 10 16.0934 0 0
7:35 am 07:35 Cloudy with Rain 62 16.8 60 15.7 93 93 Calm 30.03 1017 10 16.0934 0.03 0.762
7:55 am 07:55 Cloudy with Light Rain 62 16.8 61 16 95 95 Calm 30.03 1017 7 11.26538 0.05 1.27
8:15 am 08:15 Cloudy with Light Rain 62 16.9 61 16 94 94 ESE 3 6 30.03 1017 7 11.26538 0.01 0.254
8:35 am 08:35 Cloudy with Rain 63 17.1 61 16.3 95 95 Calm 30.03 1017 7 11.26538 0.03 0.762
8:55 am 08:55 Cloudy with Light Rain 64 17.5 62 16.6 95 95 Calm 30 1016 7 11.26538 0.03 0.762
9:15 am 09:15 Cloudy with Light Rain 64 17.6 62 16.8 95 95 E 3 6 30.03 1017 5 8.0467 0.01 0.254
9:35 am 09:35 Cloudy with Light Rain 64 17.8 63 17 95 95 E 6 9 30.03 1017 4 6.43736 0.02 0.508
9:55 am 09:55 Cloudy with Light Rain 64 18 63 17.2 95 95 ENE 7 11 30.03 1017 3 4.82802 0.03 0.762
10:15 am 10:15 Mostly Cloudy with Mist and Fog 65 18.5 64 17.7 95 95 E 12 19 30.03 1017 4 6.43736 0 0
10:35 am 10:35 Mostly Cloudy with Light Drizzle 65 18.6 64 17.8 95 95 E 12 19 30.03 1017 4 6.43736 0 0
10:55 am 10:55 Cloudy with Light Rain 66 18.7 64 17.9 95 95 E 10 17 30.03 1017 4 6.43736 0 0
11:15 am 11:15 Cloudy with Light Rain 66 18.7 64 17.9 95 95 E 14 22 30 1016 3 4.82802 0.03 0.762
11:35 am 11:35 Cloudy with Rain 66 19.1 65 18.3 95 95 E 12 19 30 1016 3 4.82802 0.05 1.27
11:55 am 11:55 Mostly Cloudy with Light Rain 67 19.7 66 18.8 95 95 ESE 13 20 30 1016 4 6.43736 0.06 1.524
12:15 pm 12:15 Cloudy with Light Rain 69 20.3 66 18.8 91 91 SE 10 17 30 1016 7 11.26538 0 0
12:35 pm 12:35 Cloudy with Light Rain 69 20.8 65 18.6 87 87 SSE 13 20 29.97 1015 7 11.26538 0 0
12:55 pm 12:55 Cloudy with Light Drizzle 70 21.2 66 19.1 88 88 SSE 14 22 29.97 1015 7 11.26538 0 0
1:15 pm 13:15 Mostly Cloudy with Light Drizzle 71 21.5 67 19.3 87 87 SSE 15 24 29.94 1014 10 16.0934 0 0
1:35 pm 13:35 Mostly Cloudy 71 21.5 65 18.4 83 83 SSE 14 22 29.94 1014 10 16.0934 0 0
2:55 pm 14:55 Cloudy 71 21.5 63 17.3 77 77 SSE 15 24 29.91 1013 10 16.0934 0 0
3:15 pm 15:15 Cloudy 71 21.5 64 17.5 78 78 SSE 17 28 29.91 1013 10 16.0934 0.01 0.254
3:35 pm 15:35 Mostly Cloudy 71 21.9 64 17.6 77 77 SSE 17 28 29.91 1013 10 16.0934 0.01 0.254
3:55 pm 15:55 Mostly Cloudy 71 21.8 64 17.5 77 77 SSE 20 31 29.91 1013 10 16.0934 0.01 0.254
4:15 pm 16:15 Cloudy 71 21.5 63 17.4 78 78 S 22 35 29.88 1012 10 16.0934 0 0
4:35 pm 16:35 Cloudy 72 22.2 64 17.5 75 75 SSE 25 41 29.88 1012 10 16.0934 0 0
4:55 pm 16:55 Cloudy 72 22.2 64 17.5 75 75 SSE 21 33 29.88 1012 10 16.0934 0 0
5:15 pm 17:15 Cloudy 72 22.1 64 17.7 76 76 S 20 31 29.88 1012 10 16.0934 0 0
5:35 pm 17:35 Cloudy 72 22.2 64 17.5 75 75 SSE 18 30 29.88 1012 10 16.0934 0 0
5:55 pm 17:55 Mostly Cloudy 73 22.6 64 17.6 73 73 SSE 17 28 29.85 1011 10 16.0934 0 0
6:15 pm 18:15 Partly Cloudy 72 22.1 64 17.5 75 75 SSE 18 30 29.85 1011 10 16.0934 0 0
6:35 pm 18:35 Sunny 72 22 63 17 73 73 SSE 20 31 29.85 1011 10 16.0934 0 0
6:55 pm 18:55 Partly Cloudy 70 21.3 62 16.8 76 76 SSE 15 24 29.85 1011 10 16.0934 0 0
7:15 pm 19:15 Mostly Cloudy with Nearby Thunderstorms 70 20.9 62 16.8 78 78 SSE 16 26 29.85 1011 10 16.0934 0 0
7:35 pm 19:35 Mostly Cloudy 69 20.8 63 17.2 80 80 SSE 15 24 29.85 1011 10 16.0934 0 0
7:55 pm 19:55 Mostly Cloudy with Nearby Thunderstorms 69 20.7 63 17.2 80 80 SSE 15 24 29.88 1012 10 16.0934 0 0
8:15 pm 20:15 Mostly Cloudy 69 20.6 63 17.3 81 81 SSE 15 24 29.88 1012 10 16.0934 0 0
8:35 pm 20:35 Partly Cloudy 69 20.7 63 17.2 80 80 SSE 15 24 29.88 1012 10 16.0934 0 0
8:55 pm 20:55 Partly Cloudy with Nearby Thunderstorms 69 20.7 63 17.3 81 81 SSE 17 28 29.88 1012 10 16.0934 0 0
9:15 pm 21:15 Partly Cloudy 69 20.5 63 17.3 82 82 SSE 17 28 29.88 1012 10 16.0934 0 0
9:35 pm 21:35 Partly Cloudy with Light Drizzle 68 20.1 64 17.5 85 85 SSE 17 28 29.88 1012 10 16.0934 0 0
9:55 pm 21:55 Partly Cloudy 68 20.1 63 17 82 82 S 21 33 29.85 1011 10 16.0934 0 0
10:15 pm 22:15 Partly Cloudy with Nearby Thunderstorms 68 20.1 62 16.9 82 82 S 18 30 29.85 1011 10 16.0934 0 0
10:35 pm 22:35 Partly Cloudy 68 20.1 62 16.8 81 81 S 20 31 29.85 1011 10 16.0934 0 0
10:55 pm 22:55 Clear 68 20 62 16.7 81 81 S 17 28 29.88 1012 10 16.0934 0 0
11:15 pm 23:15 Clear 68 19.9 62 16.6 81 81 S 18 30 29.88 1012 10 16.0934 0 0
11:35 pm 23:35 Partly Cloudy 68 20 62 16.5 80 80 SSW 13 20 29.88 1012 10 16.0934 0 0
11:55 pm 23:55 Mostly Cloudy 67 19.7 62 16.6 82 82 SSW 16 26 29.91 1013 10 16.0934 0 0

Powered by AerisWeather